Location: Unspecified
(0.0000°N, 0.0000°E)
Time: 00:13:48
(UTC+00:00)

Courier 1B Rocket - All Passes

Search period start: 19 January 2017 00:00
Search period end: 29 January 2017 00:00
Orbit: 920 x 1202 km, 28.2° (Epoch: 18 January)

Date Brightness Start Highest point End Pass type
(mag) Time Alt. Az. Time Alt. Az. Time Alt. Az.
19 Jan - 01:16:34 10° WSW 01:23:20 77° NNW 01:30:38 10° NE night (unlit)
19 Jan - 03:11:46 10° WNW 03:17:21 24° NNW 03:23:12 10° NNE visible
19 Jan - 10:53:47 10° NNW 11:00:08 28° NNE 11:06:11 10° E daylight
19 Jan - 12:46:40 10° WNW 12:54:05 89° NNE 13:01:00 10° ESE daylight
19 Jan - 14:42:03 10° W 14:47:45 26° SSW 14:53:09 10° SSE daylight
19 Jan - 22:24:04 10° SSW 22:28:35 20° SSE 22:33:14 10° ESE visible
20 Jan - 00:15:40 10° SW 00:22:13 72° SSE 00:29:17 10° ENE night (unlit)
20 Jan - 02:09:50 10° W 02:15:58 34° NNW 02:22:30 10° NE night (unlit)
20 Jan - 04:08:14 10° NW 04:10:41 12° NNW 04:13:10 10° N visible
20 Jan - 09:53:12 10° NNW 09:58:38 20° NNE 10:03:54 10° ENE daylight
20 Jan - 11:45:25 10° NW 11:52:53 61° NNE 11:59:53 10° ESE daylight
20 Jan - 13:39:51 10° W 13:46:35 40° SSW 13:52:52 10° SE daylight
20 Jan - 15:38:39 10° SW 15:40:40 11° SSW 15:42:41 10° S daylight
20 Jan - 21:24:38 10° S 21:27:19 13° SSE 21:30:00 10° SE visible
20 Jan - 23:15:03 10° SW 23:21:11 46° SSE 23:27:41 10° ENE night (unlit)
21 Jan - 01:08:19 10° WSW 01:14:44 49° NNW 01:21:37 10° NE night (unlit)
21 Jan - 03:04:53 10° WNW 03:09:01 16° NNW 03:13:19 10° NNE visible
21 Jan - 08:52:58 10° N 08:56:59 15° NNE 09:00:57 10° NE daylight
21 Jan - 10:44:23 10° NW 10:51:36 42° NNE 10:58:26 10° E daylight
21 Jan - 12:38:01 10° WNW 12:45:24 61° SSW 12:52:18 10° SE daylight
21 Jan - 14:34:45 10° WSW 14:39:17 18° SSW 14:43:38 10° SSE daylight
21 Jan - 22:14:40 10° SSW 22:20:07 30° SSE 22:25:47 10° E visible
22 Jan - 00:07:08 10° WSW 00:13:36 74° NNW 00:20:33 10° NE night (unlit)
22 Jan - 02:02:24 10° WNW 02:07:32 22° NNW 02:12:56 10° NNE night (unlit)
22 Jan - 07:53:49 10° N 07:55:11 10° NNE 07:56:35 10° NNE daylight
22 Jan - 09:43:34 10° NNW 09:50:11 30° NNE 09:56:35 10° E daylight
22 Jan - 11:36:30 10° WNW 11:44:12 89° SSW 11:51:27 10° ESE daylight
22 Jan - 13:31:59 10° W 13:37:59 27° SSW 13:43:41 10° SSE daylight
22 Jan - 21:14:36 10° SSW 21:18:59 20° SSE 21:23:27 10° ESE visible
22 Jan - 23:06:14 10° SW 23:12:34 74° SSE 23:19:17 10° ENE night (unlit)
23 Jan - 01:00:27 10° W 01:06:13 31° NNW 01:12:20 10° NNE night (unlit)
23 Jan - 02:59:32 10° NNW 03:00:52 11° NNW 03:02:12 10° N night (unlit)
23 Jan - 08:43:01 10° NNW 08:48:39 21° NNE 08:54:14 10° ENE daylight
23 Jan - 10:35:14 10° NW 10:42:56 64° NNE 10:50:16 10° ESE daylight
23 Jan - 12:29:44 10° W 12:36:44 40° SSW 12:43:20 10° SE daylight
23 Jan - 14:28:23 10° SW 14:30:57 12° SSW 14:33:29 10° S daylight
23 Jan - 20:15:05 10° S 20:17:43 13° SSE 20:20:22 10° SE visible
23 Jan - 22:05:35 10° SW 22:11:34 47° SSE 22:17:48 10° ENE visible
23 Jan - 23:58:55 10° W 00:05:02 46° NNW 00:11:32 10° NE night (unlit)
24 Jan - 01:55:41 10° NW 01:59:15 15° NNW 02:02:55 10° N night (unlit)
24 Jan - 07:42:49 10° NNW 07:47:01 15° NNE 07:51:13 10° NE daylight
24 Jan - 09:34:13 10° NW 09:41:35 44° NNE 09:48:45 10° E daylight
24 Jan - 11:27:52 10° WNW 11:35:29 60° SSW 11:42:41 10° SE daylight
24 Jan - 13:24:38 10° WSW 13:29:30 18° SSW 13:34:12 10° SSE daylight
24 Jan - 21:05:09 10° SSW 21:10:32 30° SSE 21:16:01 10° E visible
24 Jan - 22:57:42 10° WSW 23:03:59 71° NNW 23:10:35 10° NE night (unlit)
25 Jan - 00:53:06 10° WNW 00:57:49 20° NNW 01:02:44 10° NNE night (unlit)
25 Jan - 06:43:44 10° N 06:45:15 11° NNE 06:46:45 10° NNE daylight
25 Jan - 08:33:27 10° NNW 08:40:10 31° NNE 08:46:49 10° E daylight
25 Jan - 10:26:21 10° WNW 10:34:13 87° SSW 10:41:46 10° ESE daylight
25 Jan - 12:21:51 10° W 12:28:07 28° SSW 12:34:07 10° SSE daylight
25 Jan - 20:04:59 10° SSW 20:09:25 20° SSE 20:13:51 10° ESE visible
25 Jan - 21:56:46 10° SW 22:03:00 75° SSE 22:09:27 10° ENE visible
25 Jan - 23:51:07 10° W 23:56:33 29° NNW 00:02:15 10° NNE night (unlit)
26 Jan - 07:32:58 10° NNW 07:38:39 22° NNE 07:44:22 10° ENE daylight
26 Jan - 09:25:07 10° NW 09:32:54 65° NNE 09:40:30 10° ESE daylight
26 Jan - 11:19:35 10° W 11:26:47 40° SSW 11:33:41 10° SE daylight
26 Jan - 13:18:05 10° SW 13:21:10 13° SSW 13:24:10 10° S daylight
26 Jan - 19:05:17 10° S 19:08:09 13° SSE 19:11:00 10° SE visible
26 Jan - 20:56:03 10° SW 21:02:02 48° SSE 21:08:05 10° ENE visible
26 Jan - 22:49:31 10° W 22:55:26 44° NNW 23:01:36 10° NE night (unlit)
27 Jan - 00:46:38 10° NW 00:49:33 13° NNW 00:52:32 10° N night (unlit)
27 Jan - 06:32:53 10° N 06:37:03 15° NNE 06:41:15 10° NE daylight
27 Jan - 08:24:09 10° NW 08:31:32 45° NNE 08:38:54 10° E daylight
27 Jan - 10:17:45 10° WNW 10:25:28 60° SSW 10:32:57 10° SE daylight
27 Jan - 12:14:28 10° WSW 12:19:37 19° SSW 12:24:37 10° SSE daylight
27 Jan - 19:55:31 10° SSW 20:01:01 31° SSE 20:06:26 10° E visible
27 Jan - 21:48:14 10° WSW 21:54:26 68° NNW 22:00:46 10° NE visible
27 Jan - 23:43:52 10° WNW 23:48:10 19° NNW 23:52:38 10° NNE night (unlit)
28 Jan - 05:34:15 10° N 05:35:20 10° NNE 05:36:25 10° NNE visible
28 Jan - 07:23:28 10° NNW 07:30:08 31° NNE 07:36:53 10° E daylight
28 Jan - 09:16:17 10° WNW 09:24:09 86° SSW 09:31:56 10° ESE daylight
28 Jan - 11:11:43 10° W 11:18:10 28° SSW 11:24:25 10° SSE daylight
28 Jan - 18:55:13 10° SSW 18:59:52 21° SSE 19:04:25 10° ESE visible
28 Jan - 20:47:13 10° SW 20:53:29 78° SSE 20:59:45 10° ENE visible
28 Jan - 22:41:45 10° W 22:46:58 28° NNW 22:52:20 10° NNE night (unlit)
